TimeEST,TemperatureF,Dew PointF,Humidity,Sea Level PressureIn,VisibilityMPH,Wind Direction,Wind SpeedMPH,Gust SpeedMPH,PrecipitationIn,Events,Conditions,WindDirDegrees,DateUTC
12:53 AM,52.0,51.1,97,29.97,0.2,South,5.8,-,N/A,Fog,Fog,170,2013-01-12 05:53:00
1:53 AM,53.1,52.0,96,29.98,0.5,South,6.9,-,N/A,Fog,Fog,180,2013-01-12 06:53:00
2:53 AM,53.1,52.0,96,30.00,0.5,South,6.9,-,N/A,Fog,Fog,180,2013-01-12 07:53:00
3:49 AM,53.6,53.6,100,30.00,1.0,South,9.2,-,N/A,,Overcast,180,2013-01-12 08:49:00
3:53 AM,53.1,53.1,100,29.99,0.8,South,6.9,-,N/A,,Mist,180,2013-01-12 08:53:00
4:53 AM,53.1,53.1,100,30.00,1.0,SSW,6.9,-,N/A,,Overcast,200,2013-01-12 09:53:00
4:56 AM,53.6,53.6,100,30.00,2.0,SSW,6.9,-,N/A,,Mostly Cloudy,200,2013-01-12 09:56:00
4:58 AM,53.6,51.8,94,30.00,4.0,SSW,5.8,-,N/A,,Mostly Cloudy,210,2013-01-12 09:58:00
5:05 AM,51.8,51.8,100,30.00,3.0,South,5.8,-,N/A,,Scattered Clouds,190,2013-01-12 10:05:00
5:11 AM,51.8,51.8,100,30.00,1.8,South,4.6,-,N/A,,Scattered Clouds,190,2013-01-12 10:11:00
5:22 AM,51.8,51.8,100,30.00,3.0,South,4.6,-,N/A,,Mostly Cloudy,180,2013-01-12 10:22:00
5:31 AM,51.8,51.8,100,30.01,3.0,South,4.6,-,N/A,,Scattered Clouds,180,2013-01-12 10:31:00
5:33 AM,51.8,51.8,100,30.01,2.0,South,3.5,-,N/A,,Mostly Cloudy,180,2013-01-12 10:33:00
5:36 AM,51.8,51.8,100,30.01,1.2,SSW,3.5,-,N/A,,Mostly Cloudy,200,2013-01-12 10:36:00
5:46 AM,51.8,51.8,100,30.00,1.2,South,3.5,-,N/A,,Mostly Cloudy,180,2013-01-12 10:46:00
5:50 AM,51.8,51.8,100,30.01,0.8,Calm,Calm,-,N/A,,Mostly Cloudy,0,2013-01-12 10:50:00
5:53 AM,53.1,52.0,96,30.01,0.5,Calm,Calm,-,N/A,Fog,Fog,0,2013-01-12 10:53:00
6:06 AM,53.6,53.6,100,30.01,1.5,SSW,3.5,-,N/A,,Overcast,200,2013-01-12 11:06:00
6:11 AM,53.6,53.6,100,30.02,3.0,SSW,4.6,-,0.01,,Overcast,200,2013-01-12 11:11:00
6:22 AM,53.6,51.8,94,30.02,1.8,Calm,Calm,-,0.01,,Overcast,0,2013-01-12 11:22:00
6:30 AM,53.6,53.6,100,30.02,3.0,South,3.5,-,0.01,,Overcast,180,2013-01-12 11:30:00
6:53 AM,54.0,53.1,97,30.03,5.0,South,3.5,-,0.01,,Overcast,170,2013-01-12 11:53:00
7:13 AM,53.6,53.6,100,30.04,1.8,SSE,5.8,-,N/A,,Overcast,160,2013-01-12 12:13:00
7:21 AM,53.6,53.6,100,30.04,3.0,SSE,6.9,-,N/A,,Overcast,160,2013-01-12 12:21:00
7:28 AM,53.6,53.6,100,30.04,1.8,SSE,6.9,-,N/A,,Overcast,160,2013-01-12 12:28:00
7:37 AM,53.6,53.6,100,30.04,1.0,SSE,5.8,-,N/A,,Overcast,160,2013-01-12 12:37:00
7:53 AM,54.0,53.1,97,30.05,1.2,SSE,5.8,-,N/A,,Overcast,160,2013-01-12 12:53:00
8:04 AM,53.6,53.6,100,30.05,1.5,South,4.6,-,N/A,,Overcast,190,2013-01-12 13:04:00
8:11 AM,53.6,53.6,100,30.05,0.8,South,3.5,-,N/A,,Overcast,180,2013-01-12 13:11:00
8:53 AM,53.1,53.1,100,30.07,0.2,South,5.8,-,N/A,Fog,Fog,180,2013-01-12 13:53:00
9:53 AM,54.0,54.0,100,30.08,0.2,South,5.8,-,N/A,Fog,Fog,180,2013-01-12 14:53:00
10:23 AM,55.4,53.6,94,30.07,1.2,South,9.2,-,N/A,,Overcast,180,2013-01-12 15:23:00
10:44 AM,55.4,53.6,94,30.07,0.8,South,8.1,-,N/A,,Overcast,180,2013-01-12 15:44:00
10:53 AM,55.0,54.0,96,30.07,0.5,South,6.9,-,N/A,Fog,Fog,190,2013-01-12 15:53:00
11:35 AM,55.4,55.4,100,30.05,1.5,South,8.1,-,N/A,,Overcast,180,2013-01-12 16:35:00
11:39 AM,57.2,55.4,94,30.05,3.0,South,6.9,-,N/A,,Overcast,180,2013-01-12 16:39:00
11:53 AM,57.0,55.9,96,30.04,7.0,South,8.1,-,N/A,,Overcast,170,2013-01-12 16:53:00
12:32 PM,59.0,57.2,94,30.03,10.0,South,8.1,-,N/A,,Overcast,170,2013-01-12 17:32:00
12:53 PM,59.0,57.0,93,30.03,10.0,South,8.1,-,N/A,,Mostly Cloudy,170,2013-01-12 17:53:00
1:36 PM,62.6,57.2,82,30.02,10.0,South,8.1,-,N/A,,Scattered Clouds,180,2013-01-12 18:36:00
1:53 PM,63.0,57.0,81,30.01,10.0,South,6.9,-,N/A,,Partly Cloudy,190,2013-01-12 18:53:00
2:53 PM,64.0,55.0,73,30.03,10.0,SSW,8.1,-,N/A,,Mostly Cloudy,210,2013-01-12 19:53:00
3:53 PM,63.0,55.9,78,30.02,10.0,South,5.8,-,N/A,,Scattered Clouds,190,2013-01-12 20:53:00
4:53 PM,62.1,55.9,80,30.00,10.0,SSE,8.1,-,N/A,,Mostly Cloudy,150,2013-01-12 21:53:00
5:53 PM,62.1,57.0,84,29.99,10.0,South,6.9,-,N/A,,Overcast,170,2013-01-12 22:53:00
6:53 PM,61.0,57.0,87,29.99,10.0,SSE,5.8,-,N/A,,Overcast,160,2013-01-12 23:53:00
7:42 PM,60.8,59.0,94,29.98,6.0,SSE,5.8,-,0.01,,Overcast,150,2013-01-13 00:42:00
8:27 PM,60.8,59.0,94,29.95,6.0,SE,3.5,-,0.00,,Overcast,130,2013-01-13 01:27:00
8:53 PM,60.1,57.9,93,29.94,8.0,Calm,Calm,-,0.00,,Mostly Cloudy,0,2013-01-13 01:53:00
9:27 PM,59.0,57.2,94,29.94,6.0,SE,4.6,-,N/A,,Overcast,140,2013-01-13 02:27:00
9:53 PM,60.1,57.9,93,29.93,9.0,SE,3.5,-,N/A,,Overcast,130,2013-01-13 02:53:00
10:05 PM,59.0,57.2,94,29.92,9.0,SE,3.5,-,N/A,,Overcast,140,2013-01-13 03:05:00
10:53 PM,60.1,57.0,90,29.90,10.0,SE,6.9,-,0.01,,Overcast,140,2013-01-13 03:53:00
11:53 PM,60.1,57.0,90,29.90,10.0,South,6.9,-,N/A,,Overcast,170,2013-01-13 04:53:00